Regional Weather Roundup
Issued by NWS Portland, ME

Current Version | Previous Version | Text Only | Print | Product List | Glossary On
Versions: 1 2 3 4 5 6 7 8 9 10 11 12 13 14 15 16 17 18 19 20 21 22 23 24 25 26 27 28 29 30 31 32 33 34 35 36 37 38 39 40 41 42 43 44 45 46 47 48 49 50
000
ASUS41 KGYX 240510
RWRGYX
WEATHER ROUNDUP FOR MAINE AND NEW HAMPSHIRE
NATIONAL WEATHER SERVICE GRAY ME
100 AM EDT SAT JUN 24 2017

MEZ002-005-006-010-012-015-018-020-021-024-026-027-029-240600-
MAINE

CITY           SKY/WX    TMP DP  RH WIND       PRES   REMARKS
PORTLAND       MOCLDY    67  64  90 CALM      29.53F
SANFORD        CLOUDY    74  70  87 SW7       29.54F
BAR HARBOR     LGT RAIN  60  60 100 S14       29.56F VSB 3/4
WISCASSET      CLOUDY    67  65  93 SW5       29.55F
ROCKLAND       CLOUDY    64  63  96 SW9       29.54F
FRYEBURG       CLOUDY    74  69  85 SW3       29.52F
LEWISTONAUBURN CLOUDY    66  65  96 S6        29.51F
AUGUSTA        CLEAR     65  63  93 S7        29.52F
WATERVILLE     CLOUDY    67  65  93 S5        29.49F
BANGOR         FOG       63  63 100 S8        29.53F VSB 1
GREENVILLE       N/A     63  63 100 VRB3      29.51F
MILLINOCKET    CLOUDY    65  64  97 S8        29.52F FOG
HOULTON        CLOUDY    61  61 100 S6        29.51F FOG
PRESQUE ISLE   LGT RAIN  60  60 100 SE13      29.50F FOG
FRENCHVILLE    HVY RAIN  60  59  96 S8        29.48F VSB 1/2
CARIBOU        FOG       61  60  97 S8        29.48F VSB 3/4
$$

NHZ002-005-008-009-011-012-014-240600-
NEW HAMPSHIRE

CITY           SKY/WX    TMP DP  RH WIND       PRES   REMARKS
PORTSMOUTH     CLOUDY    76  70  82 SW7       29.54F
ROCHESTER      CLOUDY    74  69  85 VRB3      29.54F
NASHUA         CLOUDY    76  72  87 VRB3      29.56F
MANCHESTER     MOCLDY    75  70  84 S6        29.54F
CONCORD        PTCLDY    76  70  82 S6        29.54F
LACONIA        MOCLDY   N/A N/A N/A SW8       29.54F
PLYMOUTH       MOCLDY    70  68  95 CALM      29.53F FOG
BERLIN         FOG       66  63  90 CALM      29.53F VSB 1/4
WHITEFIELD     MOCLDY    68  65  90 CALM      29.53F
JAFFREY        CLOUDY    74  72  93 S9G17     29.59F
KEENE          CLOUDY    74  71  91 S7        29.55F
LEBANON        CLOUDY    75  69  81 S6        29.52F
MT WASHINGTON  FOG       55  55 100 W40         N/A  VSB 0
$$

VTZ005-007-008-240600-
VERMONT

CITY           SKY/WX    TMP DP  RH WIND       PRES   REMARKS
ST JOHNSBURY     N/A     71  70  96 MISG      29.48F
MONTPELIER     MOCLDY    70  68  93 S5        29.55F
BURLINGTON     CLOUDY    75  71  87 S12       29.47F
$$

MAZ007-012-024-CTZ003-RIZ002-NYZ038-NYZ072-240600-
SOUTHERN NEW ENGLAND AND NY

CITY           SKY/WX    TMP DP  RH WIND       PRES   REMARKS
BOSTON         MOCLDY    73  70  90 S12       29.57F
WORCESTER      CLOUDY    72  69  90 SW13      29.61F
NANTUCKET      FOG       65  65 100 S18       29.68F VSB 1/2
PROVIDENCE     PTCLDY    73  71  93 SW8       29.62F
HARTFORD       CLOUDY    75  71  87 S12       29.58F
ALBANY         LGT RAIN  74  70  87 S10       29.55F
NEW YORK CITY  MOCLDY    82  74  76 SW9       29.61F
$$

ANZ081-ANZ082-ANZ150-NHZ014-MEZ023>029-240600-
COASTAL MARINE OBSERVATIONS

STATION/POSITION TIME  TEMP    WIND        PRES    WAVE
                       AIR SEA DIR/SP/G            HT/PER
                 (UTC) (F)     (DEG/KT/KT) (MB)    (FT/S)
MATINICUS ROCK   0400   58     190/ 23/ 24 1000.6F
ISLE OF SHOALS   0400   69     190/ 24/ 25 1000.9F
JEFFREYS LEDGE   0406      60                N/A     5/ 6
CASHES LEDGE BUO 0350   62 59              1001.3    6/ 6
GEORGES BANK BUO 0350   60 53              1009.2    3/ 8
$$

.............KEY..............
   WCI - WIND CHILL
   TC  - TEMPERATURE IN CELSIUS
   VSB - VISIBILITY IN MILES
   HX  - HEAT INDEX
   FAIR- INDICATES FEW OR NO CLOUDS BELOW 12,000 FT, WITH NO
         SIGNIFICANT WEATHER AND/OR OBSTRUCTIONS TO VISIBILITY.





USA.gov is the U.S. government's official web portal to all federal, state and local government web resources and services.